MOST

Last updated on Mon Sep 21 2026 00:03:33 GMT+0000 (Coordinated Universal Time)

1 27843U 03031D 26263.45750826 .00000028 00000+0 32838-4 0 9994 2 27843 98.7087 269.8696 0009477 343.9378 16.1497 14.21338490204240
UTC large
Height (km)
Speed (km/s)
/
Latitude / Longitude
Inclination (degrees)
Orbital Period (minutes)
Azimuth
Elevation
Range (km)
Doppler Factor

Next 0 passes for location: London (51.5072 / 0.1276)

No passes found over London.
MOST